User: anonymous   Login
Location: Lansingburgh
(42.7845°N, 73.6696°W)
Time: 12:57:16
(UTC+00:00)
Language:

Cosmos 2341 Rocket - Orbit

View from above orbital plane
View from above orbital plane
View from above satellite
View from above satellite

Ground track
Ground track

The orbit data is extracted from the following two-line orbital elements,

1 24773U 97017B   20099.12569531  .00000095  00000-0  85524-4 0  9991
2 24773  82.9221 333.1507 0023830 332.0218 181.5941 13.73643468151748
Epoch (UTC): 08 April 2020 03:01:00
Eccentricity: 0.0023830
inclination: 82.9221°
perigee height: 969 km
apogee height: 1004 km
right ascension of ascending node: 333.1507°
argument of perigee: 332.0218°
revolutions per day: 13.73643468
mean anomaly at epoch: 181.5941°
orbit number at epoch: 15174

The dashed part of the orbit path shows where the satellite is in the earth's shadow,  

DLR